This demonstration page uses our WeatherBlox Daily Observations layout. Learn more.

Left ArrowRight Arrow

36.17497, -115.13722

Hourly Observations for May 8, 2017

Temp ( °F °C ) Dew Point ( °F °C ) Humidity (%) Winds ( mph kmh ) Pressure ( in mb ) Visibility ( mi km ) Precip ( " mm )
12:53 am 00:53 Mostly Cloudy 56 13.3 32 0 40 40 WNW 5 7 29.93 1013 10 16 0.00 0.00
1:53 am 01:53 Clear 54 12.2 32 0 43 43 NNW 3 6 29.91 1013 10 16 0.00 0.00
2:53 am 02:53 Clear 55 12.8 32 0 42 42 Calm 29.91 1013 10 16 0.00 0.00
3:53 am 03:53 Clear 55 12.8 32 0 42 42 Calm 29.91 1013 10 16 0.00 0.00
4:53 am 04:53 Clear 55 12.8 26 -3.3 33 33 NNW 7 11 29.91 1013 10 16 0.00 0.00
5:53 am 05:53 Sunny 55 12.8 27 -2.8 34 34 N 9 15 29.93 1013 10 16 0.00 0.00
6:53 am 06:53 Sunny 56 13.3 28 -2.2 34 34 NNE 7 11 29.95 1014 10 16 0.00 0.00
7:53 am 07:53 Sunny 58 14.4 28 -2.2 32 32 Calm 29.96 1015 10 16 0.00 0.00
8:53 am 08:53 Sunny 63 17.2 29 -1.7 28 28 N 3 6 29.95 1014 10 16 0.00 0.00
9:53 am 09:53 Sunny 66 18.9 31 -0.6 27 27 Calm 29.95 1014 10 16 0.00 0.00
10:53 am 10:53 Sunny 70 21.1 29 -1.7 22 22 E 10 17 29.93 1014 10 16 0.00 0.00
11:53 am 11:53 Sunny 71 21.7 26 -3.3 19 19 undefined N/A 29.90 1013 10 16 0.00 0.00
12:53 pm 12:53 Sunny 73 22.8 24 -4.4 16 16 SE 8 13 29.87 1012 10 16 0.00 0.00
1:53 pm 13:53 Sunny 74 23.3 22 -5.6 14 14 ESE 12 19 29.86 1011 10 16 0.00 0.00
2:10 pm 14:10 Sunny 73 23 23 -5 15 15 SE 14 22 29.77 1008 10 16 0.00 0.00
2:12 pm 14:12 Sunny 73 23 21 -6 14 14 SE 13 20 29.77 1008 10 16 0.00 0.00
2:53 pm 14:53 Sunny 75 23.9 22 -5.6 14 14 VRB 5 7 29.84 1010 10 16 0.00 0.00
3:53 pm 15:53 Sunny 76 24.4 22 -5.6 13 13 Calm 29.82 1010 10 16 0.00 0.00
4:53 pm 16:53 Sunny 77 25 23 -5 13 13 NW 6 9 29.80 1009 10 16 0.00 0.00
5:53 pm 17:53 Sunny 78 25.6 21 -6.1 12 12 N 6 9 29.78 1008 10 16 0.00 0.00
6:53 pm 18:53 Sunny 77 25 22 -5.6 13 13 NW 3 6 29.76 1008 10 16 0.00 0.00
7:53 pm 19:53 Clear 76 24.4 23 -5 14 14 Calm 29.77 1008 10 16 0.00 0.00
8:53 pm 20:53 Clear 75 23.9 26 -3.3 16 16 SW 3 6 29.78 1008 10 16 0.00 0.00
9:53 pm 21:53 Clear 72 22.2 28 -2.2 19 19 WNW 5 7 29.78 1009 10 16 0.00 0.00
10:53 pm 22:53 Clear 70 21.1 28 -2.2 21 21 NW 12 19 29.77 1008 10 16 0.00 0.00
11:53 pm 23:53 Clear 71 21.7 26 -3.3 19 19 N 14 22 29.76 1008 10 16 0.00 0.00

Powered by AerisWeather